Location: Camoruquito
(9.9001°N, 67.3564°W)
Time: 13:52:53
(UTC+00:00)

ARGOS - Pass Details

Date: 14 April 2024
Orbit: 818 x 834 km, 98.4° (Epoch: 27 May)

Event Time Altitude Azimuth Distance (km) Brightness Sun altitude
Rises 09:10:04 0° 15° (NNE) 3,340 6.7 -17.6°
Reaches altitude 10° 09:12:24 10° 17° (NNE) 2,407 6.0 -17.0°
Maximum altitude 09:17:44 76° 102° (ESE) 844 3.3 -15.7°
Drops below altitude 10° 09:23:03 10° 187° (S) 2,406 5.4 -14.4°
Sets 09:25:23 0° 189° (S) 3,338 6.1 -13.9°
